FlightSource - Aviation Photo Database

World Wide Airport Lookup


Search by ICAO
Or
Search by City

FlightSource.ca - Aviation Photo Database - Southwest Oregon Regional Airport Information
Airport Identification
Name: Southwest Oregon Regional Airport
ICAO: KOTH
IATA: OTH
Airport Location
City: North Bend
Region: OR
Country: United States
Continent: North America
Latitude: 43.4171
Longitude: -124.246
Airport Information
Type: Medium Airport
Elevation: 17 Feet ASL
Flight Status: KOTH
More Info: KOTH
Airport Weather    
Metar: KOTH 202356Z 11003KT 10SM OVC026 11/10 A2993 RMK AO2 RAE54 SLP133 P0001 60007 T01060100 10128 20106 58001
TAF:


Advertisement